[[{"header":{"parameterUnit":"m.s-1","parameterCategory":1,"la1":30.2991,"la2":30.254,"lo1":-89.0895,"lo2":-89.0444,"dy":0.0017,"dx":0.0017,"nx":28,"ny":28,"refTime":"2025-03-20T09:00:00:Z","depth":0,"parameterNumber":2,"parameterNumberName":"U-component_of_WINDS"},"data":[0,0,0,0,0,0,0,0,0,0,0,0,0,0,0,0,0,0,0,0,0,0,0,0,0,0,0,0,0,0,0,0,0,0,0,0,0,0,0,0,0,0,0,0,0,0,0,0,0,0,0,0,0,0,0,0,0,0,1.3767,1.3768,0,1.3773,1.3774,1.3774,1.3755,1.3754,1.3754,1.3753,1.376,1.376,1.3761,0,0,0,0,0,0,0,0,0,0,0,0,0,1.3741,1.3742,1.3767,1.3768,1.3768,1.3773,1.3774,1.3774,1.3755,1.3754,1.3753,1.3753,1.3759,1.376,1.3761,0,0,0,0,0,0,0,0,0,0,0,0,0,1.3751,1.3742,1.3767,1.3759,1.3758,1.3773,1.3774,1.3774,1.3755,1.3754,1.3753,1.3752,1.3759,1.376,1.3761,1.3785,0,0,1.3765,1.3765,0,0,0,0,0,0,0,0,1.375,1.3752,1.376,1.376,1.3759,1.3762,1.3767,1.3778,1.3755,1.3756,1.3753,1.3752,1.3761,1.3762,1.3765,1.3785,1.3786,1.3765,1.3765,1.3766,1.3766,0,0,0,0,0,0,0,1.375,1.3751,1.377,1.376,1.3759,1.3755,1.3756,1.3769,1.3764,1.3756,1.3755,1.3756,1.3761,1.3764,1.3765,1.3786,1.3765,1.3766,1.3766,1.3767,1.3827,1.3828,0,0,0,0,0,0,1.375,1.3751,1.377,1.377,1.3752,1.3757,1.3757,1.3762,1.3763,1.3763,1.3756,1.3755,1.3763,1.3764,1.3765,1.3794,1.3766,1.3767,1.3767,1.3826,1.3827,1.3829,0,0,0,0,0,0,1.3749,1.3752,1.3769,1.376,1.3762,1.3758,1.3764,1.3763,1.3766,1.3764,1.3763,1.3761,1.3762,1.3764,1.3781,1.3794,1.3767,1.3768,1.3825,1.3827,1.3828,1.385,0,0,0,0,0,0,1.3749,1.3752,1.376,1.376,1.3763,1.3784,1.3765,1.3763,1.3768,1.3766,1.3767,1.3767,1.3762,1.3779,1.3782,1.3795,1.3769,1.3824,1.3826,1.3828,1.3848,1.3852,1.3856,0,0,0,0,0,1.3748,1.3766,1.3761,1.3763,1.3773,1.3785,1.3786,1.3779,1.3769,1.3778,1.3777,1.3767,1.3792,1.3781,1.3784,1.3797,1.3823,1.3825,1.3827,1.3847,1.3852,1.3856,0,0,0,0,0,0,1.3767,1.3766,1.376,1.3778,1.3782,1.3781,1.3792,1.3785,1.3791,1.3789,1.3781,1.3782,1.38,1.38,1.3788,1.3821,1.3806,1.3809,1.382,1.3824,1.3828,1.3827,1.377,0,0,0,0,0,1.3773,1.3783,1.3781,1.3798,1.38,1.3796,1.3801,1.3796,1.3799,1.38,1.38,1.3804,1.3813,1.3819,1.3827,1.3849,1.3849,1.386,1.3864,1.3867,1.3869,1.3881,1.3886,1.3836,1.3836,1.3836,0,0,1.3787,1.3787,1.3793,1.3802,1.3804,1.3814,1.3797,1.3809,1.3816,1.3802,1.3818,1.3818,1.3822,1.3842,1.385,1.3843,1.3883,1.3869,1.3872,1.3872,1.3884,1.3889,1.3893,1.3837,1.3837,1.3837,0,0,1.3816,1.3817,1.3831,1.3834,1.3838,1.3835,1.3839,1.384,1.384,1.3855,1.3845,1.3855,1.387,1.3874,1.3877,1.391,1.3902,1.3913,1.3932,1.3944,1.3948,1.3952,1.3964,1.3968,1.3916,1.3916,1.3916,0,1.3831,1.3846,1.384,1.3852,1.3856,1.3845,1.386,1.3863,1.3869,1.3872,1.3864,1.3884,1.3886,1.3906,1.3915,1.3918,1.3922,1.3912,1.3948,1.3952,1.3955,1.3966,1.397,1.3917,1.3917,1.3917,1.3917,0,1.3865,1.3876,1.3887,1.3894,1.39,1.3913,1.3909,1.3916,1.3912,1.391,1.3927,1.393,1.3938,1.3943,1.3938,1.3964,1.3959,1.395,1.3934,1.3961,1.3971,1.3976,1.3919,1.3919,1.3918,1.3918,0,0,1.3904,1.3909,1.3913,1.3916,1.392,1.3928,1.3942,1.3951,1.3957,1.3963,1.3974,1.3988,1.398,1.3985,1.3981,1.3992,1.4018,1.3981,1.3981,1.3988,1.4046,1.4053,1.4058,1.4013,1.4014,1.4014,1.4046,0,1.3933,1.3956,1.3951,1.3974,1.3984,1.3975,1.3987,1.3991,1.3991,1.4,1.4,1.401,1.3999,1.4002,1.4012,1.4012,1.4029,1.401,1.4024,1.4024,1.4022,1.4063,1.4069,1.4099,1.405,1.4051,1.4051,0,1.3968,1.3975,1.3999,1.4003,1.4007,1.4017,1.4026,1.4035,1.404,1.4039,1.4045,1.404,1.4054,1.404,1.406,1.4047,1.4053,1.4054,1.4055,1.4055,1.4038,1.4064,1.4108,1.4112,1.4058,1.4057,1.4057,0,1.3994,1.4009,1.4026,1.4029,1.4034,1.4042,1.4044,1.4049,1.4055,1.4063,1.4066,1.4076,1.4081,1.4089,1.4086,1.4076,1.4108,1.4093,1.4107,1.4108,1.4113,1.4113,1.4159,1.4119,1.4118,1.4118,1.4118,0,1.4025,1.404,1.4037,1.4047,1.4064,1.406,1.4077,1.4078,1.4083,1.4094,1.4087,1.4097,1.4093,1.4104,1.4102,1.412,1.4122,1.4122,1.4121,1.4122,1.4122,1.4125,1.4123,1.412,1.4119,1.4119,1.4119,0,1.4056,1.4055,1.4072,1.4076,1.4077,1.4089,1.4093,1.4103,1.4103,1.4117,1.412,1.412,1.4132,1.4131,1.4144,1.4144,1.4165,1.4162,1.4163,1.4162,1.4177,1.4175,1.4225,1.4232,1.4188,1.4189,1.4189,0,1.4075,1.4086,1.4092,1.4099,1.4102,1.4113,1.4119,1.4116,1.4123,1.4131,1.414,1.4152,1.4161,1.4181,1.4183,1.4193,1.419,1.4207,1.4192,1.4193,1.419,1.4189,1.419,1.421,1.421,1.4211,1.4211,0,1.411,1.4109,1.4118,1.4128,1.4136,1.4143,1.415,1.4156,1.4154,1.4163,1.4175,1.4182,1.4197,1.4209,1.4219,1.4222,1.4217,1.4216,1.422,1.422,1.422,1.422,1.4171,1.4215,1.4214,1.4214,1.4214,1.4214,1.4135,1.4145,1.4151,1.4162,1.4167,1.4174,1.4183,1.4185,1.4196,1.4207,1.4205,1.4219,1.4226,1.424,1.4244,1.4256,1.425,1.4256,1.4257,1.4258,1.426,1.422,1.4258,1.4258,1.4258,1.4258,1.4258,0,1.4169,1.4172,1.4183,1.4193,1.4202,1.4196,1.4204,1.4212,1.4225,1.4232,1.4241,1.4256,1.4268,1.4272,1.4283,1.4292,1.429,1.4295,1.4294,1.4295,1.4265,1.426,1.4297,1.4297,1.4297,1.4297,1.4297,1.4297,1.4187,1.4204,1.4204,1.4224,1.4228,1.4241,1.4247,1.4253,1.4259,1.4276,1.4286,1.4288,1.4294,1.4307,1.4318,1.4319,1.4323,1.433,1.433,1.4301,1.4297,1.4293,1.4288,1.4331,1.4331,1.4359,1.4359,1.4359]},{"header":{"parameterUnit":"m.s-1","parameterCategory":1,"la1":30.2991,"la2":30.254,"lo1":-89.0895,"lo2":-89.0444,"dy":0.0017,"dx":0.0017,"nx":28,"ny":28,"refTime":"2025-03-20T09:00:00:Z","depth":0,"parameterNumber":3,"parameterNumberName":"V-component_of_WINDS"},"data":[0,0,0,0,0,0,0,0,0,0,0,0,0,0,0,0,0,0,0,0,0,0,0,0,0,0,0,0,0,0,0,0,0,0,0,0,0,0,0,0,0,0,0,0,0,0,0,0,0,0,0,0,0,0,0,0,0,0,-5.7262,-5.7264,0,-5.7516,-5.7519,-5.7521,-5.748,-5.7476,-5.7472,-5.7468,-5.7726,-5.7737,-5.7748,0,0,0,0,0,0,0,0,0,0,0,0,0,-5.6738,-5.6748,-5.7261,-5.7265,-5.7268,-5.7515,-5.7519,-5.7522,-5.7481,-5.7476,-5.7471,-5.7466,-5.7723,-5.7736,-5.7749,0,0,0,0,0,0,0,0,0,0,0,0,0,-5.6976,-5.6751,-5.7261,-5.7277,-5.7281,-5.7515,-5.7519,-5.7523,-5.7482,-5.7476,-5.7469,-5.7463,-5.7718,-5.7734,-5.7751,-5.7983,0,0,-5.7801,-5.7808,0,0,0,0,0,0,0,0,-5.6963,-5.6995,-5.7272,-5.7276,-5.7281,-5.746,-5.7429,-5.7677,-5.7484,-5.7406,-5.7467,-5.746,-5.7643,-5.7665,-5.7727,-5.7995,-5.8007,-5.7802,-5.7812,-5.7819,-5.7824,0,0,0,0,0,0,0,-5.6946,-5.6984,-5.7362,-5.7276,-5.7282,-5.7271,-5.7298,-5.7476,-5.7558,-5.7412,-5.741,-5.7441,-5.7644,-5.7711,-5.7733,-5.801,-5.7802,-5.7816,-5.7827,-5.7833,-5.8482,-5.8489,0,0,0,0,0,0,-5.6925,-5.6971,-5.7354,-5.7369,-5.7103,-5.7286,-5.7315,-5.7409,-5.7556,-5.7572,-5.7446,-5.7438,-5.7686,-5.7714,-5.7742,-5.8024,-5.7819,-5.7835,-5.7844,-5.8475,-5.8483,-5.8491,0,0,0,0,0,0,-5.6914,-5.696,-5.7344,-5.717,-5.7218,-5.7302,-5.7407,-5.7417,-5.7485,-5.7581,-5.7596,-5.75,-5.7682,-5.7719,-5.7924,-5.8032,-5.7842,-5.7857,-5.8466,-5.8477,-5.8487,-5.8591,0,0,0,0,0,0,-5.6899,-5.6956,-5.7046,-5.7172,-5.7227,-5.7522,-5.7414,-5.7427,-5.7513,-5.7505,-5.7636,-5.7651,-5.768,-5.7899,-5.794,-5.8052,-5.787,-5.8456,-5.8471,-5.8484,-5.8578,-5.8604,-5.8626,0,0,0,0,0,-5.6881,-5.7065,-5.7051,-5.7097,-5.7342,-5.7529,-5.756,-5.759,-5.7522,-5.7613,-5.7675,-5.7647,-5.8014,-5.7921,-5.7966,-5.8084,-5.845,-5.8467,-5.8483,-5.8567,-5.8599,-5.8625,0,0,0,0,0,0,-5.6949,-5.7082,-5.7068,-5.7298,-5.7403,-5.7521,-5.7637,-5.7623,-5.7749,-5.7735,-5.7767,-5.7797,-5.8005,-5.8065,-5.7959,-5.8317,-5.8222,-5.8249,-5.8271,-5.8301,-5.8325,-5.8307,-5.7883,0,0,0,0,0,-5.6991,-5.7133,-5.724,-5.7433,-5.7486,-5.7553,-5.7635,-5.765,-5.7759,-5.7803,-5.788,-5.7986,-5.8125,-5.8216,-5.835,-5.8586,-5.8613,-5.8689,-5.8713,-5.8733,-5.8756,-5.8884,-5.8919,-5.8546,-5.8546,-5.8545,0,0,-5.7079,-5.7169,-5.7257,-5.7449,-5.7532,-5.7677,-5.759,-5.7748,-5.7856,-5.7826,-5.8025,-5.8085,-5.8206,-5.8427,-5.8529,-5.8484,-5.8865,-5.8754,-5.8768,-5.8781,-5.8905,-5.894,-5.8972,-5.8557,-5.8555,-5.8553,0,0,-5.7314,-5.7397,-5.7566,-5.7651,-5.7777,-5.782,-5.786,-5.7982,-5.8021,-5.822,-5.8201,-5.8329,-5.8569,-5.8656,-5.8731,-5.8998,-5.8976,-5.904,-5.9166,-5.9292,-5.9321,-5.9347,-5.9443,-5.9477,-5.9062,-5.9063,-5.9063,0,-5.7408,-5.7627,-5.7655,-5.7815,-5.79,-5.788,-5.8052,-5.8132,-5.8295,-5.8354,-5.8301,-5.8601,-5.8681,-5.8922,-5.8987,-5.9049,-5.9096,-5.9026,-5.9315,-5.9341,-5.9366,-5.9458,-5.9494,-5.907,-5.9069,-5.9068,-5.9067,0,-5.7736,-5.7888,-5.801,-5.8168,-5.8267,-5.8432,-5.8484,-5.858,-5.8585,-5.8633,-5.8837,-5.8932,-5.9084,-5.9142,-5.9148,-5.9385,-5.9353,-5.9307,-5.9213,-5.9408,-5.9495,-5.953,-5.908,-5.9077,-5.9075,-5.9073,0,0,-5.8023,-5.8194,-5.8239,-5.831,-5.8447,-5.8565,-5.8728,-5.8878,-5.896,-5.9072,-5.921,-5.9412,-5.9371,-5.9457,-5.9472,-5.9582,-5.9788,-5.9523,-5.9526,-5.957,-6.0054,-6.0088,-6.0128,-5.9774,-5.978,-5.9786,-6.0044,0,-5.8272,-5.8562,-5.8591,-5.885,-5.899,-5.8973,-5.9115,-5.9214,-5.9263,-5.9388,-5.9442,-5.9585,-5.9519,-5.9571,-5.9679,-5.974,-5.9885,-5.9721,-5.9902,-5.9908,-5.9873,-6.0173,-6.021,-6.0449,-6.0078,-6.0083,-6.0088,0,-5.8601,-5.8724,-5.8997,-5.9114,-5.9174,-5.9302,-5.9441,-5.9561,-5.9672,-5.97,-5.9795,-5.9796,-5.9964,-5.9862,-6.0093,-5.9981,-6.0056,-6.0097,-6.0107,-6.0126,-6.001,-6.0201,-6.0526,-6.0562,-6.0141,-6.0137,-6.0133,0,-5.8784,-5.9017,-5.9211,-5.9272,-5.9414,-5.9504,-5.9566,-5.9671,-5.9759,-5.988,-5.9937,-6.0075,-6.0152,-6.0258,-6.0296,-6.0218,-6.0526,-6.0427,-6.0553,-6.0553,-6.062,-6.0616,-6.0963,-6.0667,-6.0666,-6.0666,-6.0665,0,-5.9059,-5.9227,-5.9295,-5.9414,-5.9601,-5.9633,-5.9817,-5.9875,-5.9968,-6.0098,-6.009,-6.0212,-6.0254,-6.0383,-6.0413,-6.06,-6.0634,-6.066,-6.0667,-6.0662,-6.0659,-6.0713,-6.0697,-6.0675,-6.0673,-6.0671,-6.067,0,-5.9296,-5.9348,-5.9558,-5.9674,-5.9707,-5.984,-5.9939,-6.0054,-6.01,-6.0264,-6.0304,-6.0377,-6.0528,-6.0576,-6.0757,-6.0778,-6.0996,-6.0987,-6.0959,-6.096,-6.1084,-6.1072,-6.1479,-6.1534,-6.1201,-6.1204,-6.1207,0,-5.9469,-5.9598,-5.9728,-5.9814,-5.9881,-6.002,-6.0109,-6.0144,-6.0238,-6.0374,-6.0472,-6.0621,-6.0743,-6.0984,-6.1053,-6.1192,-6.1186,-6.1319,-6.1207,-6.1198,-6.1189,-6.1182,-6.1195,-6.1341,-6.1344,-6.1347,-6.1349,0,-5.9771,-5.979,-5.9919,-6.0058,-6.0165,-6.0276,-6.0382,-6.0453,-6.0504,-6.0609,-6.0763,-6.0857,-6.1043,-6.1191,-6.1332,-6.1396,-6.1382,-6.1384,-6.1421,-6.1418,-6.1396,-6.141,-6.1017,-6.1375,-6.1372,-6.137,-6.1369,-6.1368,-5.9981,-6.0095,-6.0204,-6.0348,-6.0432,-6.0532,-6.0645,-6.0706,-6.0835,-6.099,-6.1002,-6.1168,-6.1275,-6.1463,-6.1534,-6.1664,-6.1626,-6.1679,-6.1693,-6.1706,-6.1716,-6.1375,-6.169,-6.1689,-6.1689,-6.1688,-6.1688,0,-6.0283,-6.0352,-6.0485,-6.0634,-6.0748,-6.0724,-6.084,-6.0937,-6.1084,-6.1185,-6.1305,-6.1481,-6.1625,-6.1704,-6.1847,-6.1936,-6.1933,-6.1973,-6.1967,-6.1982,-6.1742,-6.1696,-6.1973,-6.1973,-6.1973,-6.1972,-6.1972,-6.1972,-6.0454,-6.0645,-6.0677,-6.0909,-6.0976,-6.114,-6.1208,-6.13,-6.1381,-6.1579,-6.1698,-6.1749,-6.1842,-6.1991,-6.2121,-6.2141,-6.2194,-6.2238,-6.2253,-6.2028,-6.1999,-6.1971,-6.1928,-6.2249,-6.2249,-6.2483,-6.2485,-6.2487]}]]